Location: Silverdale
(47.6506°N, 122.6941°W)
Time: 19:34:44
(UTC+00:00)

Tiros 1 despin weight - Pass Details

Date: 06 October 2022
Orbit: 590 x 637 km, 48.2° (Epoch: 05 December)

Event Time Altitude Azimuth Distance (km) Brightness Sun altitude
Rises 03:08:10 0° 282° (WNW) 2,872 ? -15.4°
Reaches altitude 10° 03:10:27 10° 281° (W) 1,975 ? -15.7°
Maximum altitude 03:14:59 76° 197° (SSW) 644 ? -16.5°
Enters shadow 03:17:08 31° 116° (ESE) 1,092 ? -16.8°
